Change the Weather History Date:

Tuesday, February 3, 2015

  Actual Average Record
Temperature  
Mean Temperature 22 °F 26 °F  
Max Temperature 36 °F 35 °F 63 °F (1992)
Min Temperature 8 °F 16 °F -12 °F (1989)
Degree Days  
Heating Degree Days 43 40  
Month to date heating degree days 148 120  
Since 1 July heating degree days 3698 3812  
Cooling Degree Days 0 0  
Month to date cooling degree days 0 0  
Year to date cooling degree days 0 0  
Moisture  
Dew Point 16 °F    
Average Humidity 83    
Maximum Humidity 96    
Minimum Humidity 69    
Precipitation  
Precipitation 0.00 in 0.04 in 0.49 in (2008)
Month to date precipitation 0.46 0.13  
Sea Level Pressure  
Sea Level Pressure 30.08 in    
Wind  
Wind Speed 8 mph (SW)    
Max Wind Speed 17 mph    
Max Gust Speed 23 mph    
Visibility 9 miles    
Events      
T = Trace of Precipitation, MM = Missing Value Source: NWS Daily Summary

Daily Weather History Graph

Daily Weather History Graph

Search for Another Location

Airport or City:

Trip Planner

Search our weather history database for the weather conditions in past years. The results will help you decide how hot, cold, wet, or windy it might be!

Date:

Astronomy

Feb. 03, 2015 Rise Set
Actual Time 7:23 AM CST 5:35 PM CST
Civil Twilight 6:54 AM CST 6:04 PM CST
Nautical Twilight 6:22 AM CST 6:37 PM CST
Astronomical Twilight 5:50 AM CST 7:09 PM CST
Moon 5:42 PM CST (2/3) 6:52 AM CST (2/3)
Length of Visible Light 11h 09m
Length of Day
10h 12m
Full, 100% of the Moon is Illuminated
Feb 3
Full
Feb 3
Full
Feb 11
Last Quarter
Feb 18
New
Feb 25
First Quarter

Hourly Weather History & Observations

Time (CST) Temp. Windchill Dew Point Humidity Pressure Visibility Wind Dir Wind Speed Gust Speed Precip Events Conditions
12:53 AM 10.9 °F -2.6 °F 7.0 °F 84% 30.15 in 10.0 mi SSW 10.4 mph - N/A   Clear
1:53 AM 10.0 °F -1.9 °F 8.1 °F 92% 30.14 in 10.0 mi SSW 8.1 mph - N/A   Clear
2:53 AM 14.0 °F 3.9 °F 10.0 °F 84% 30.13 in 10.0 mi WSW 6.9 mph - N/A   Clear
3:53 AM 10.9 °F -0.8 °F 8.1 °F 88% 30.15 in 10.0 mi West 8.1 mph - N/A   Clear
4:53 AM 10.9 °F 0.2 °F 8.1 °F 88% 30.15 in 10.0 mi West 6.9 mph - N/A   Clear
5:53 AM 9.0 °F -0.9 °F 7.0 °F 92% 30.15 in 10.0 mi NW 5.8 mph - N/A   Clear
6:53 AM 10.0 °F - 8.1 °F 92% 30.14 in 10.0 mi Calm Calm - N/A   Partly Cloudy
7:53 AM 10.0 °F 0.4 °F 8.1 °F 92% 30.15 in 9.0 mi South 5.8 mph - N/A   Overcast
8:53 AM 14.0 °F 6.5 °F 10.0 °F 84% 30.15 in 10.0 mi South 4.6 mph - N/A   Overcast
9:53 AM 16.0 °F 7.4 °F 12.0 °F 84% 30.13 in 10.0 mi SSE 5.8 mph - N/A   Overcast
10:53 AM 19.9 °F 9.3 °F 15.1 °F 81% 30.12 in 10.0 mi South 9.2 mph - N/A   Scattered Clouds
11:53 AM 23.0 °F 13.9 °F 18.0 °F 81% 30.08 in 10.0 mi SSE 8.1 mph - N/A   Mostly Cloudy
12:53 PM 27.0 °F 18.0 °F 21.0 °F 78% 30.02 in 10.0 mi SSE 9.2 mph - N/A   Scattered Clouds
1:53 PM 30.0 °F 19.5 °F 23.0 °F 75% 29.96 in 10.0 mi South 13.8 mph - N/A   Partly Cloudy
2:53 PM 33.1 °F 23.4 °F 25.0 °F 72% 29.95 in 10.0 mi South 13.8 mph 21.9 mph N/A   Overcast
3:53 PM 35.1 °F 27.4 °F 27.0 °F 72% 29.95 in 10.0 mi SSW 10.4 mph - N/A   Clear
4:53 PM 35.1 °F 30.1 °F 27.0 °F 72% 29.98 in 10.0 mi WSW 5.8 mph - N/A   Clear
5:53 PM 33.1 °F 28.7 °F 26.1 °F 75% 29.99 in 10.0 mi WSW 4.6 mph - N/A   Clear
7:53 PM 26.1 °F 19.4 °F 23.0 °F 88% 30.04 in 9.0 mi West 5.8 mph - N/A   Partly Cloudy
8:53 PM 23.0 °F 13.9 °F 21.9 °F 96% 30.05 in 7.0 mi NNW 8.1 mph - N/A   Clear
9:53 PM 24.1 °F 14.4 °F 21.9 °F 91% 30.06 in 8.0 mi NNW 9.2 mph - N/A   Clear
10:53 PM 23.0 °F 13.1 °F 21.9 °F 96% 30.07 in 5.0 mi NNW 9.2 mph - N/A   Clear
11:53 PM 23.0 °F 13.9 °F 21.0 °F 92% 30.09 in 8.0 mi North 8.1 mph - N/A   Overcast